Palacios, TX

8:36 PM CST on February 07, 2016 (GMT -0600)
Palacios Municipal

Weather History for KPSX - February, 2014

Change the Weather History Date:

Saturday, February 22, 2014

  Actual Average Record
Temperature  
Mean Temperature 58 °F -  
Max Temperature 69 °F 65 °F 82 °F (1949)
Min Temperature 46 °F 46 °F 29 °F (1964)
Degree Days  
Heating Degree Days 8    
Growing Degree Days 8 (Base 50)    
Moisture  
Dew Point 55 °F    
Average Humidity 81    
Maximum Humidity 97    
Minimum Humidity 65    
Precipitation  
Precipitation 0.00 in - - ()
Sea Level Pressure  
Sea Level Pressure 29.98 in    
Wind  
Wind Speed 10 mph (East)    
Max Wind Speed 20 mph    
Max Gust Speed -    
Visibility 9 miles    
Events      
Averages and records for this station are not official NWS values.
T = Trace of Precipitation, MM = Missing Value Source: NWS Daily Summary

Daily Weather History Graph

Daily Weather History Graph

Search for Another Location

Airport or City:

Trip Planner

Search our weather history database for the weather conditions in past years. The results will help you decide how hot, cold, wet, or windy it might be!

Date:

Astronomy

Feb. 22, 2014 Rise Set
Actual Time 6:57 AM CST 6:20 PM CST
Civil Twilight 6:33 AM CST 6:44 PM CST
Nautical Twilight 6:05 AM CST 7:11 PM CST
Astronomical Twilight 5:38 AM CST 7:39 PM CST
Moon 12:42 AM CST (2/22) 11:44 AM CST (2/22)
Length of Visible Light 12h 11m
Length of Day
11h 23m
Waning Gibbous, 50% of the Moon is Illuminated
Feb 22
Waning Gibbous
Mar 1
New
Mar 8
First Quarter
Mar 16
Full
Mar 23
Last Quarter

Hourly Weather History & Observations

Time (CST) Temp. Windchill Dew Point Humidity Pressure Visibility Wind Dir Wind Speed Gust Speed Precip Events Conditions
12:53 AM 48.9 °F - 43.0 °F 80% 30.07 in 10.0 mi East 5.8 mph - N/A   Clear
1:53 AM 46.0 °F 41.9 °F 42.1 °F 86% 30.05 in 10.0 mi North 8.1 mph - N/A   Clear
2:53 AM 46.9 °F - 43.0 °F 86% 30.02 in 10.0 mi ENE 8.1 mph - N/A   Clear
3:53 AM 46.9 °F - 43.0 °F 86% 30.01 in 10.0 mi ENE 8.1 mph - N/A   Clear
4:53 AM 46.9 °F - 44.1 °F 90% 30.02 in 10.0 mi NE 8.1 mph - N/A   Clear
5:53 AM 46.9 °F - 44.1 °F 90% 30.02 in 10.0 mi NE 9.2 mph - N/A   Clear
6:53 AM 46.9 °F - 44.1 °F 90% 30.03 in 10.0 mi North - - N/A   Clear
7:53 AM 52.0 °F - 48.9 °F 89% 30.04 in 10.0 mi ENE 6.9 mph - N/A   Clear
8:53 AM 61.0 °F - 53.1 °F 75% 30.05 in 10.0 mi East 12.7 mph - N/A   Clear
9:53 AM 66.9 °F - 55.0 °F 66% 30.05 in 10.0 mi ESE 18.4 mph - N/A   Clear
10:53 AM 69.1 °F - 57.0 °F 65% 30.05 in 10.0 mi ESE 16.1 mph - N/A   Clear
11:42 AM 69.1 °F - 57.0 °F 65% 30.05 in 10.0 mi ESE 17.3 mph - N/A   Mostly Cloudy
11:53 AM 69.1 °F - 57.0 °F 65% 30.04 in 10.0 mi SE 19.6 mph - N/A   Overcast
12:26 PM 68.0 °F - 57.0 °F 68% 30.03 in 10.0 mi ESE 15.0 mph - N/A   Overcast
12:53 PM 69.1 °F - 57.9 °F 68% 30.01 in 10.0 mi ESE 12.7 mph - N/A   Overcast
1:53 PM 69.1 °F - 57.9 °F 68% 29.97 in 10.0 mi ESE 13.8 mph - N/A   Overcast
2:53 PM 69.1 °F - 59.0 °F 70% 29.95 in 10.0 mi ESE 12.7 mph - N/A   Overcast
3:13 PM 69.1 °F - 57.9 °F 68% 29.95 in 10.0 mi ESE 15.0 mph - N/A   Overcast
3:53 PM 68.0 °F - 57.9 °F 70% 29.93 in 10.0 mi ESE 15.0 mph - N/A   Overcast
4:53 PM 66.9 °F - 57.9 °F 73% 29.92 in 10.0 mi ESE 13.8 mph - N/A   Overcast
5:53 PM 66.0 °F - 57.9 °F 75% 29.92 in 10.0 mi ESE 15.0 mph - N/A   Overcast
6:13 PM 64.9 °F - 59.0 °F 81% 29.92 in 10.0 mi ESE 12.7 mph - N/A   Overcast
6:37 PM 64.9 °F - 59.0 °F 81% 29.92 in 10.0 mi East 11.5 mph - N/A   Overcast
6:53 PM 64.9 °F - 59.0 °F 81% 29.92 in 10.0 mi ESE 12.7 mph - N/A   Overcast
7:53 PM 64.0 °F - 59.0 °F 84% 29.93 in 10.0 mi ESE 11.5 mph - N/A   Overcast
8:28 PM 64.0 °F - 60.1 °F 87% 29.93 in 10.0 mi ESE 12.7 mph - N/A   Overcast
8:53 PM 64.0 °F - 60.1 °F 87% 29.93 in 10.0 mi ESE 11.5 mph - N/A   Overcast
9:04 PM 64.0 °F - 61.0 °F 90% 29.93 in 10.0 mi ESE 10.4 mph - N/A   Overcast
9:24 PM 64.0 °F - 61.0 °F 90% 29.94 in 10.0 mi ESE 11.5 mph - N/A   Overcast
9:48 PM 64.4 °F - 60.8 °F 88% 29.94 in 10.0 mi East 8.1 mph - N/A   Overcast
9:53 PM 64.0 °F - 61.0 °F 90% 29.94 in 10.0 mi ESE 8.1 mph - N/A   Overcast
10:53 PM 63.0 °F - 61.0 °F 93% 29.94 in 5.0 mi East 8.1 mph - N/A   Overcast
11:06 PM 63.0 °F - 61.0 °F 93% 29.93 in 5.0 mi East 6.9 mph - N/A   Overcast
11:38 PM 63.0 °F - 62.1 °F 97% 29.93 in 1.8 mi East 6.9 mph - N/A   Overcast
11:53 PM 63.0 °F - 62.1 °F 97% 29.92 in 1.0 mi East 6.9 mph - N/A   Mist